This demonstration page uses our WeatherBlox Daily Observations layout. Learn more.

40.92945, -100.16068

Hourly Observations for April 1, 2015

Temp ( °F °C ) Dew Point ( °F °C ) Humidity (%) Winds ( mph kmh ) Pressure ( in mb ) Visibility ( mi km ) Precip ( " mm )
12:15 am 00:15 Clear 63 17.3 30 -1 29 29 S 16 26 29.71 1006 10 16.0934 N/A
12:35 am 00:35 Clear 62 16.5 30 -1 30 30 S 17 28 29.71 1006 10 16.0934 N/A
12:55 am 00:55 Clear 62 16.4 31 -0.7 31 31 S 18 30 29.71 1006 10 16.0934 N/A
1:15 am 01:15 Clear 61 16.2 31 -0.6 32 32 S 18 30 29.71 1006 10 16.0934 N/A
1:35 am 01:35 Clear 61 16.1 31 -0.6 32 32 S 18 30 29.71 1006 10 16.0934 N/A
1:55 am 01:55 Clear 61 16 31 -0.5 33 33 S 20 31 29.71 1006 10 16.0934 N/A
2:15 am 02:15 Clear 60 15.8 31 -0.5 33 33 S 18 30 29.68 1005 10 16.0934 N/A
2:35 am 02:35 Clear 60 15.5 31 -0.3 34 34 S 17 28 29.68 1005 10 16.0934 N/A
2:55 am 02:55 Clear 59 15 32 -0.1 36 36 S 16 26 29.68 1005 10 16.0934 N/A
3:15 am 03:15 Clear 58 14.3 32 0 38 38 S 14 22 29.68 1005 10 16.0934 N/A
3:35 am 03:35 Clear 57 13.7 32 0 39 39 S 13 20 29.68 1005 10 16.0934 N/A
3:55 am 03:55 Clear 56 13.4 32 0.1 40 40 S 15 24 29.71 1006 10 16.0934 N/A
4:15 am 04:15 Clear 56 13.4 33 0.5 42 42 S 15 24 29.71 1006 10 16.0934 N/A
4:35 am 04:35 Clear 56 13.6 33 0.8 42 42 S 16 26 29.65 1004 10 16.0934 N/A
4:55 am 04:55 Clear 56 13.6 34 1.1 43 43 S 17 28 29.65 1004 10 16.0934 N/A
5:15 am 05:15 Clear 56 13.5 35 1.6 45 45 S 17 28 29.65 1004 10 16.0934 N/A
5:35 am 05:35 Clear 57 14 36 2.2 45 45 S 18 30 29.65 1004 10 16.0934 N/A
5:55 am 05:55 Clear 58 14.3 37 2.7 46 46 S 18 30 29.65 1004 10 16.0934 N/A
6:15 am 06:15 Clear 57 14 37 3 48 48 S 21 33 29.65 1004 10 16.0934 N/A
6:35 am 06:35 Clear 56 13.6 38 3.2 50 50 S 17 28 29.65 1004 10 16.0934 N/A
6:55 am 06:55 Clear 56 13.6 39 4 53 53 S 18 30 29.65 1004 10 16.0934 N/A
7:15 am 07:15 Clear 57 13.9 40 4.5 53 53 S 20 31 29.65 1004 10 16.0934 N/A
7:35 am 07:35 Sunny 56 13.5 40 4.7 56 56 S 16 26 29.65 1004 10 16.0934 N/A
7:55 am 07:55 Sunny 57 13.8 41 5.1 56 56 S 16 26 29.65 1004 10 16.0934 N/A
8:15 am 08:15 Sunny 57 14.1 42 5.4 56 56 S 16 26 29.65 1004 10 16.0934 N/A
8:35 am 08:35 Sunny 59 15 42 5.5 53 53 S 18 30 29.65 1004 10 16.0934 N/A
8:55 am 08:55 Sunny 60 15.8 42 5.5 51 51 S 16 26 29.65 1004 10 16.0934 N/A
9:55 am 09:55 Sunny 65 18.1 44 6.4 47 47 SSW 26 43 29.59 1002 10 16.0934 N/A
10:15 am 10:15 Sunny 66 19.1 44 6.9 45 45 SSW 31 50 29.59 1002 10 16.0934 N/A
10:35 am 10:35 Sunny 68 19.9 45 7.1 44 44 SSW 29 46 29.56 1001 10 16.0934 N/A
10:55 am 10:55 Sunny 69 20.6 46 7.5 43 43 SSW 29 46 29.56 1001 10 16.0934 N/A
11:15 am 11:15 Sunny 71 21.6 45 7.3 40 40 SSW 31 50 29.56 1001 10 16.0934 N/A
11:35 am 11:35 Sunny 73 22.6 45 7.3 37 37 SSW 28 44 29.56 1001 10 16.0934 N/A
11:55 am 11:55 Sunny 74 23.2 44 6.6 34 34 SSW 30 48 29.53 1000 10 16.0934 N/A
12:15 pm 12:15 Sunny 75 23.8 44 6.5 33 33 SSW 28 44 29.5 999 10 16.0934 N/A
12:35 pm 12:35 Sunny 77 25 45 7 32 32 SSW 25 41 29.5 999 10 16.0934 N/A
12:55 pm 12:55 Sunny 78 25.5 43 6.2 29 29 SSW 23 37 29.5 999 10 16.0934 N/A
1:15 pm 13:15 Sunny 79 26.3 43 6.1 28 28 SSW 22 35 29.5 999 10 16.0934 N/A
1:35 pm 13:35 Sunny 80 26.9 42 5.5 25 25 SW 17 28 29.47 998 10 16.0934 N/A
1:55 pm 13:55 Sunny 80 26.7 40 4.5 24 24 SW 16 26 29.44 997 10 16.0934 N/A
2:15 pm 14:15 Sunny 82 27.6 40 4.3 22 22 SW 12 19 29.44 997 10 16.0934 N/A
2:35 pm 14:35 Sunny 82 28 40 4.5 22 22 SSW 13 20 29.44 997 10 16.0934 N/A
2:55 pm 14:55 Sunny 84 28.7 33 0.6 16 16 SW 5 7 29.41 996 10 16.0934 N/A
3:15 pm 15:15 Sunny 82 27.8 37 2.7 20 20 SW 6 9 29.41 996 10 16.0934 N/A
3:35 pm 15:35 Sunny 83 28.6 34 1.1 17 17 WSW 5 7 29.41 996 10 16.0934 N/A
3:55 pm 15:55 Sunny 83 28.1 36 2.4 19 19 S 9 15 29.41 996 10 16.0934 N/A
4:15 pm 16:15 Sunny 82 27.8 32 0 16 16 WSW 3 6 29.41 996 10 16.0934 N/A
4:35 pm 16:35 Sunny 82 28 33 0.7 17 17 SSW 5 7 29.41 996 10 16.0934 N/A
4:55 pm 16:55 Sunny 82 27.5 35 1.8 19 19 Calm 29.41 996 10 16.0934 N/A
5:15 pm 17:15 Sunny 82 27.5 36 2.1 19 19 Calm 29.38 995 10 16.0934 N/A
5:35 pm 17:35 Sunny 77 25 37 2.6 23 23 N 21 33 29.44 997 10 16.0934 N/A
5:55 pm 17:55 Sunny 76 24.6 37 2.6 24 24 N 26 43 29.44 997 10 16.0934 N/A
6:15 pm 18:15 Sunny 74 23.3 37 2.7 26 26 N 23 37 29.44 997 10 16.0934 N/A
6:35 pm 18:35 Sunny 71 21.6 37 2.5 28 28 N 22 35 29.47 998 10 16.0934 N/A
6:55 pm 18:55 Sunny 73 22.5 37 2.8 28 28 N 21 33 29.44 997 10 16.0934 N/A
7:15 pm 19:15 Sunny 71 21.6 36 2.1 28 28 N 20 31 29.5 999 10 16.0934 N/A
7:35 pm 19:35 Sunny 68 19.8 36 2.1 31 31 N 20 31 29.5 999 10 16.0934 N/A
7:55 pm 19:55 Sunny 65 18.6 37 2.5 34 34 N 20 31 29.53 1000 10 16.0934 N/A
8:15 pm 20:15 Clear 64 17.7 37 2.7 37 37 N 18 30 29.53 1000 10 16.0934 N/A
8:35 pm 20:35 Clear 63 17 38 3.1 40 40 ENE 12 19 29.59 1002 10 16.0934 N/A
8:55 pm 20:55 Clear 63 17.2 37 2.9 39 39 N 16 26 29.59 1002 10 16.0934 N/A
9:15 pm 21:15 Clear 62 16.8 37 2.6 39 39 N 18 30 29.59 1002 10 16.0934 N/A
9:35 pm 21:35 Partly Cloudy 63 17 37 2.5 38 38 N 21 33 29.62 1003 10 16.0934 N/A
9:55 pm 21:55 Mostly Cloudy 62 16.7 35 1.7 37 37 N 18 30 29.62 1003 10 16.0934 N/A
10:15 pm 22:15 Mostly Cloudy 62 16.6 33 0.7 34 34 NNW 12 19 29.71 1006 10 16.0934 N/A
10:35 pm 22:35 Mostly Cloudy 61 16 34 1 36 36 N 7 11 29.74 1007 10 16.0934 N/A
10:55 pm 22:55 Cloudy 60 15.7 33 0.5 36 36 N 10 17 29.74 1007 10 16.0934 N/A
11:15 pm 23:15 Cloudy with Light Rain 60 15.6 32 0.1 35 35 NNE 17 28 29.71 1006 10 16.0934 N/A
11:35 pm 23:35 Mostly Cloudy 59 15 31 -0.5 35 35 NNE 16 26 29.71 1006 10 16.0934 N/A
11:55 pm 23:55 Clear 58 14.3 28 -2.1 32 32 NNE 21 33 29.74 1007 10 16.0934 N/A

Powered by AerisWeather